EW7144 Weather Reports


Display with metric or nautical units.
time (UTC)temp
F
wind
direction
speed
MPH
gust
MPH
rain 1hr
in
rain 24hr
in
rain mn
in
humidity
%
barometer
mb
20190620075410 50 119 3.0 13.0 0.24 0.53 0.53 92 1015.9
20190620074409 51 105 4.0 14.0 0.24 0.50 0.50 92 1015.9
20190620073409 50 92 5.0 16.0 0.24 0.46 0.46 92 1015.7
20190620072409 50 25 5.0 14.0 0.24 0.42 0.42 91 1015.9
20190620071409 51 147 5.0 12.0 0.22 0.37 0.37 91 1016.3
20190620070409 51 97 3.0 10.0 0.22 0.33 0.33 91 1016.6
20190620065410 51 122 5.0 10.0 0.22 0.28 0.28 91 1016.6
20190620064409 51 139 6.0 13.0 0.20 0.25 0.25 90 1016.7
20190620063409 51 70 3.0 12.0 0.19 0.21 0.21 90 1016.8
20190620062409 51 78 3.0 9.0 0.17 0.17 0.17 90 1017.0
20190620061409 51 97 5.0 12.0 0.15 0.15 0.15 90 1017.0
20190620060409 51 119 5.0 12.0 0.11 0.11 0.11 89 1016.9
20190620055409 51 113 2.0 10.0 0.06 0.06 0.06 89 1017.2
20190620054409 51 77 2.0 9.0 0.05 0.05 0.05 88 1017.3
20190620053409 52 132 5.0 13.0 0.02 0.02 0.02 87 1017.4
20190620052409 52 120 2.0 15.0 0.01 0.01 0.01 86 1017.4
20190620051409 52 141 5.0 12.0 0.00 0.00 0.00 84 1017.5
20190620050410 52 74 2.0 12.0 0.00 0.00 0.00 84 1017.4
20190620045409 52 82 3.0 15.0 0.00 0.00 0.00 84 1017.4
20190620044409 51 126 4.0 12.0 0.00 0.00 0.00 84 1017.4
20190620043409 52 148 3.0 13.0 0.00 0.00 0.00 83 1017.1
20190620042409 52 131 5.0 13.0 0.00 0.00 0.00 81 1017.6
20190620041409 52 111 2.0 12.0 0.00 0.00 0.00 81 1018.0
20190620040409 52 120 3.0 9.0 0.00 0.00 0.00 81 1018.1
20190620035409 52 117 3.0 9.0 0.00 0.00 0.00 81 1018.2
20190620034409 52 131 0.0 8.0 0.00 0.00 0.00 80 1018.3
20190620033409 52 122 4.0 12.0 0.00 0.00 0.00 80 1018.4
20190620032409 52 96 5.0 9.0 0.00 0.00 0.00 79 1018.6
20190620031409 52 173 4.0 12.0 0.00 0.00 0.00 79 1018.7
20190620030409 52 132 5.0 13.0 0.00 0.00 0.00 79 1018.8
20190620025409 53 120 6.0 12.0 0.00 0.00 0.00 78 1019.0
20190620024408 53 115 3.0 9.0 0.00 0.00 0.00 78 1018.8
20190620023410 53 80 3.0 9.0 0.00 0.00 0.00 78 1018.9
20190620022409 52 126 2.0 10.0 0.00 0.00 0.00 79 1019.1
20190620021409 52 72 5.0 10.0 0.00 0.00 0.00 78 1019.5
20190620020409 52 47 1.0 7.0 0.00 0.00 0.00 79 1019.5
20190620015409 52 9 1.0 8.0 0.00 0.00 0.00 78 1019.5
20190620014410 52 134 2.0 14.0 0.00 0.00 0.00 78 1019.5
20190619230409 52 119 5.0 13.0 0.00 0.00 0.00 75 1022.1
20190619225410 51 129 6.0 12.0 0.00 0.00 0.00 77 1022.2
20190619224411 51 142 5.0 13.0 0.00 0.00 0.00 76 1022.3
20190619223410 51 157 3.0 12.0 0.00 0.00 0.00 77 1022.3
20190619222410 52 134 3.0 16.0 0.00 0.00 0.00 76 1022.3
20190619221410 52 103 6.0 14.0 0.00 0.00 0.00 77 1022.2
20190619220410 51 139 6.0 16.0 0.00 0.00 0.00 77 1022.3
20190619215411 51 122 6.0 13.0 0.00 0.00 0.00 78 1022.4
20190619214410 51 101 5.0 16.0 0.00 0.00 0.00 78 1022.6
20190619213410 50 86 6.0 15.0 0.00 0.00 0.00 78 1022.6
20190619212410 50 146 7.0 16.0 0.00 0.00 0.00 79 1022.8
20190619211410 50 149 6.0 16.0 0.00 0.00 0.00 79 1023.0
20190619210410 49 137 6.0 16.0 0.00 0.00 0.00 81 1023.2
20190619205409 49 137 7.0 18.0 0.00 0.00 0.00 81 1023.3
20190619204411 49 140 4.0 15.0 0.00 0.00 0.00 81 1023.4
20190619203409 49 133 6.0 15.0 0.00 0.00 0.00 80 1023.4
20190619202410 49 138 6.0 12.0 0.00 0.00 0.00 80 1023.4
20190619201410 49 110 3.0 12.0 0.00 0.00 0.00 79 1023.3
20190619200409 49 118 5.0 18.0 0.00 0.00 0.00 79 1023.2
20190619195409 49 95 2.0 14.0 0.00 0.00 0.00 77 1023.4
20190619194410 49 132 6.0 14.0 0.00 0.00 0.00 76 1023.4
20190619193410 49 114 1.0 8.0 0.00 0.00 0.00 76 1023.5
20190619192410 49 13 2.0 9.0 0.00 0.00 0.00 76 1023.4
20190619191410 49 62 2.0 12.0 0.00 0.00 0.00 76 1023.4
20190619190410 49 148 5.0 13.0 0.00 0.00 0.00 75 1023.3
20190619185410 50 134 5.0 12.0 0.00 0.00 0.00 74 1023.3
20190619184409 49 141 5.0 12.0 0.00 0.00 0.00 75 1023.3
20190619183410 49 140 4.0 8.0 0.00 0.00 0.00 75 1023.2
20190619182409 49 113 2.0 7.0 0.00 0.00 0.00 75 1023.3
20190619181409 49 109 1.0 5.0 0.00 0.00 0.00 75 1023.5
20190619180410 49 81 1.0 7.0 0.00 0.00 0.00 75 1023.5
20190619175409 49 128 3.0 6.0 0.00 0.00 0.00 76 1023.5
20190619174410 49 60 1.0 8.0 0.00 0.00 0.00 76 1023.6
20190619173410 49 140 2.0 7.0 0.00 0.00 0.00 76 1023.6
20190619172409 49 109 1.0 5.0 0.00 0.00 0.00 76 1023.5
20190619171409 49 125 2.0 8.0 0.00 0.00 0.00 76 1023.7
20190619170409 48 142 2.0 8.0 0.00 0.00 0.00 77 1023.6
20190619165410 48 138 3.0 10.0 0.00 0.00 0.00 78 1023.6
20190619164409 48 138 2.0 6.0 0.00 0.00 0.00 78 1023.6
20190619163410 48 117 3.0 9.0 0.00 0.00 0.00 79 1023.6
20190619162410 47 120 3.0 8.0 0.00 0.00 0.00 80 1023.6
20190619161410 47 94 1.0 8.0 0.00 0.00 0.00 81 1023.6
20190619160409 47 131 1.0 7.0 0.00 0.00 0.00 81 1023.7
20190619155409 47 128 3.0 7.0 0.00 0.00 0.00 81 1023.9
20190619154410 46 130 3.0 7.0 0.00 0.00 0.00 82 1024.0
20190619153409 46 121 2.0 9.0 0.00 0.00 0.00 82 1024.2
20190619152410 46 126 4.0 8.0 0.00 0.00 0.00 82 1024.3
20190619151409 46 114 1.0 7.0 0.00 0.00 0.00 82 1024.5
20190619150410 46 142 1.0 5.0 0.00 0.00 0.00 81 1024.6
20190619145409 45 127 1.0 3.0 0.00 0.00 0.00 83 1024.6
20190619144410 45 76 0.0 2.0 0.00 0.00 0.00 83 1024.7
20190619143409 45 66 1.0 3.0 0.00 0.00 0.00 83 1024.8
20190619142409 45 64 2.0 3.0 0.00 0.00 0.00 83 1024.6
20190619141409 45 83 1.0 3.0 0.00 0.00 0.00 84 1024.5
20190619140409 45 137 0.0 2.0 0.00 0.00 0.00 84 1024.6
20190619135428 45 133 0.0 1.0 0.00 0.00 0.00 85 1024.7
20190619134409 45 133 0.0 2.0 0.00 0.00 0.00 85 1024.7
20190619133409 44 134 1.0 2.0 0.00 0.00 0.00 86 1024.6
20190619132410 44 178 0.0 2.0 0.00 0.00 0.00 86 1024.7
20190619131410 44 138 0.0 2.0 0.00 0.00 0.00 86 1024.8
20190619130410 44 143 1.0 3.0 0.00 0.00 0.00 86 1024.9
20190619125409 44 122 1.0 2.0 0.00 0.00 0.00 86 1024.9
20190619124409 44 178 0.0 3.0 0.00 0.00 0.00 86 1025.1
20190619123410 44 130 0.0 3.0 0.00 0.00 0.00 86 1025.2
20190619122410 44 138 0.0 2.0 0.00 0.00 0.00 87 1025.3
20190619121409 44 138 1.0 3.0 0.00 0.00 0.00 86 1025.4
20190619120410 45 134 1.0 2.0 0.00 0.00 0.00 86 1025.4
20190619115410 45 128 1.0 3.0 0.00 0.00 0.00 86 1025.5
20190619114410 45 110 2.0 3.0 0.00 0.00 0.00 87 1025.6
20190619113410 45 114 1.0 3.0 0.00 0.00 0.00 88 1025.7
20190619112410 45 105 0.0 0.0 0.00 0.00 0.00 87 1025.8
20190619111409 45 105 0.0 0.0 0.00 0.00 0.00 88 1025.8
20190619110410 45 105 0.0 0.0 0.00 0.00 0.00 88 1025.8
20190619105410 44 105 0.0 0.0 0.00 0.00 0.00 88 1025.7
20190619104409 45 105 0.0 2.0 0.00 0.00 0.00 87 1025.8
20190619103410 45 108 0.0 3.0 0.00 0.00 0.00 87 1025.7
20190619102409 45 183 0.0 0.0 0.00 0.00 0.00 87 1025.7
20190619101410 45 183 0.0 2.0 0.00 0.00 0.00 86 1025.9
20190619100409 45 146 0.0 2.0 0.00 0.00 0.00 86 1025.7
20190619095409 45 151 0.0 2.0 0.00 0.00 0.00 85 1025.8
20190619094410 46 168 0.0 0.0 0.00 0.00 0.00 84 1025.9
20190619093409 46 141 1.0 3.0 0.00 0.00 0.00 83 1025.9
20190619092409 47 112 1.0 3.0 0.00 0.00 0.00 82 1025.8
20190619091410 47 108 3.0 6.0 0.00 0.00 0.00 81 1025.8
20190619090409 48 116 2.0 3.0 0.00 0.00 0.00 80 1025.9
20190619085410 48 124 1.0 3.0 0.00 0.00 0.00 80 1026.0
20190619084410 48 127 1.0 3.0 0.00 0.00 0.00 80 1026.0
20190619083409 48 113 2.0 3.0 0.00 0.00 0.00 81 1026.0
20190619082410 48 126 2.0 3.0 0.00 0.00 0.00 81 1026.0
20190619081409 48 128 2.0 3.0 0.00 0.00 0.00 82 1026.0
20190619080410 48 120 2.0 3.0 0.00 0.00 0.00 82 1026.0